AVA120 SKBO-EGLL

Flight info

Callsign AVA120
Flight time N/A
Altitude 37000
Route ZIP5H BUV UW1 KOVBU DCT PIE DCT ENPUT UL342 KARUM DCT KATOK DCT KEEKA/M083F370 DCT SIFEN DCT 36N050W/M083F390 44N040W 47N030W 49N020W DCT SOMAX DCT ATSUR DCT LULOX/N0477F390 DCT SIDDI DCT DAWLY DCT ELRIP DCT OTMET
Aircraft B772/H-SDE2E3FGHIJ5LORVWXY/LB1D1

Departure

Time N/A
Airport El Dorado International Airport (SKBO)

Arrival

Time 2026-05-06 23:50
Airport London Heathrow Airport (EGLL)
Time Latitude Longitude Altitude Speed Heading
2026-05-06 23:49 51.47735 -0.52241 583 ft 134 kts 88°
2026-05-06 23:49 51.47738 -0.50764 409 ft 133 kts 88°
2026-05-06 23:49 51.47738 -0.49270 209 ft 133 kts 88°
2026-05-06 23:50 51.47747 -0.47801 104 ft 129 kts 87°
2026-05-06 23:50 51.47760 -0.45677 92 ft 55 kts 90°
2026-05-06 23:50 51.47763 -0.45208 92 ft 36 kts 89°
2026-05-06 23:51 51.47751 -0.44929 95 ft 22 kts 117°
2026-05-06 23:51 51.47666 -0.44812 97 ft 14 kts 143°
2026-05-06 23:51 51.47602 -0.44740 95 ft 11 kts 111°
2026-05-06 23:51 51.47551 -0.44662 94 ft 10 kts 166°
2026-05-06 23:52 51.47503 -0.44592 96 ft 10 kts 101°
2026-05-06 23:52 51.47503 -0.44477 94 ft 10 kts 90°
2026-05-06 23:52 51.47503 -0.44312 94 ft 14 kts 90°
2026-05-06 23:52 51.47503 -0.44183 94 ft 8 kts 90°
2026-05-06 23:53 51.47497 -0.44096 95 ft 8 kts 116°
2026-05-06 23:53 51.47445 -0.44063 94 ft 9 kts 176°
2026-05-06 23:53 51.47386 -0.44057 93 ft 9 kts 177°
2026-05-06 23:53 51.47312 -0.44061 95 ft 8 kts 181°
2026-05-06 23:54 51.47290 -0.44062 95 ft 11 kts 181°
2026-05-06 23:54 51.47201 -0.44063 95 ft 13 kts 180°
2026-05-06 23:54 51.47114 -0.44062 93 ft 13 kts 179°
2026-05-06 23:54 51.47026 -0.44060 95 ft 13 kts 179°
2026-05-06 23:55 51.46939 -0.44061 95 ft 13 kts 180°
2026-05-06 23:55 51.46851 -0.44060 91 ft 13 kts 179°
2026-05-06 23:55 51.46768 -0.44067 91 ft 10 kts 204°
2026-05-06 23:55 51.46752 -0.44187 92 ft 14 kts 270°
2026-05-06 23:56 51.46753 -0.44341 94 ft 14 kts 270°
2026-05-06 23:56 51.46756 -0.44493 94 ft 14 kts 279°
2026-05-06 23:56 51.46822 -0.44557 93 ft 10 kts 360°
2026-05-06 23:56 51.46866 -0.44515 93 ft 7 kts 86°
2026-05-06 23:57 51.46865 -0.44468 93 ft 2 kts 91°
2026-05-06 23:57 51.46864 -0.44449 92 ft 2 kts 91°
2026-05-06 23:57 51.46864 -0.44431 93 ft 2 kts 90°
2026-05-06 23:57 51.46864 -0.44419 94 ft 0 kts 90°
2026-05-06 23:58 51.46864 -0.44418 94 ft 0 kts 90°